Helicity
60 53 51 48 47 46 47 55 63 73 74 64 79 76 102 68 110 -38 57 44 50 19 31 53 39 36 52 35 38 63 77 89 52 27 50 288 311 333 343 415 226 123 144 164 414
58 65 62 47 46 45 43 43 54 67 73 62 71 81 129 52 -5 33 49 34 42 24 41 60 90 56 41 23 23 57 60 3 -11 113 164 260 377 400 312 341 206 203 230 464 431
57 56 58 57 50 47 45 45 47 56 66 61 59 93 158 45 50 58 45 37 20 31 45 46 58 54 20 37 -2 37 76 47 42 103 229 263 327 280 346 203 130 237 323 393 374
41 48 56 64 65 58 52 53 49 52 66 61 54 107 174 -10 93 91 22 -5 20 31 40 64 68 82 39 41 13 45 33 92 38 116 184 249 247 245 251 113 197 274 339 350 333
40 38 51 69 82 77 69 69 61 56 63 61 52 90 20 35 65 73 81 28 25 37 67 83 87 73 47 60 48 27 68 72 27 99 179 257 199 233 207 261 382 367 350 314 273
41 31 34 51 67 88 90 88 70 67 66 64 55 66 3 41 51 36 34 48 78 54 126 108 90 84 54 115 66 48 88 93 143 199 236 292 216 315 269 468 465 420 324 281 263
40 37 36 49 74 87 97 98 89 80 89 71 50 -5 7 85 86 83 84 70 91 50 71 69 85 113 58 94 50 80 146 114 183 229 177 289 237 216 394 436 505 433 332 252 359
37 33 35 52 74 83 89 111 125 139 104 54 7 11 -14 49 39 42 73 113 59 51 29 45 67 97 84 87 129 121 133 114 140 194 173 292 195 293 403 537 476 431 367 318 512
40 44 44 54 71 95 102 130 172 106 63 20 36 37 28 78 40 50 47 34 60 88 47 35 46 87 129 156 145 131 63 82 128 145 233 292 220 222 427 523 476 435 396 462 698
42 48 52 68 80 104 135 220 126 86 47 28 57 59 34 61 37 46 54 24 75 110 115 83 94 111 171 170 111 67 103 104 106 123 289 317 231 179 402 430 470 491 444 652 840
55 50 58 80 94 115 123 53 82 102 120 86 81 35 119 153 137 66 77 54 94 122 91 83 116 77 54 68 66 109 121 102 83 79 332 203 232 270 292 304 459 511 509 739 874
59 59 71 94 113 136 56 66 54 18 31 49 21 46 67 156 108 140 42 70 102 99 78 126 70 23 32 37 56 91 119 124 99 61 135 140 114 195 326 331 598 601 595 845 952
60 71 85 109 151 62 63 49 35 21 25 32 14 -7 26 79 24 20 51 47 54 88 71 72 36 43 85 96 110 108 85 82 74 119 143 172 156 102 237 328 521 515 609 862 1020
64 80 95 160 73 70 48 78 31 9 29 27 15 5 16 49 14 -4 1 44 22 48 45 71 64 90 96 105 100 103 53 91 115 138 98 151 136 130 150 208 364 497 653 941 921
73 88 104 82 77 59 30 62 19 17 42 27 27 5 26 108 28 87 31 67 0 38 69 42 49 64 38 78 74 64 50 87 116 120 110 152 139 63 54 103 248 484 724 947 839
76 87 105 55 31 20 79 37 4 51 27 23 14 19 45 4 -19 106 75 51 17 36 23 -7 -4 39 46 55 79 88 108 120 125 110 96 47 70 72 90 48 30 219 638 850 792
83 79 71 62 43 47 56 20 60 64 95 79 19 13 27 23 39 79 77 81 62 62 -1 -17 -32 13 67 67 101 118 114 84 102 119 86 67 107 78 58 58 107 370 610 641 670
83 81 45 36 50 81 53 49 91 131 116 59 43 16 16 -1 21 61 84 49 69 45 19 17 35 16 48 115 61 45 65 57 56 59 58 69 79 59 72 119 279 390 534 640 671
95 76 68 64 43 63 70 47 158 163 111 108 36 7 16 0 16 52 47 74 41 84 34 22 33 32 63 92 87 72 79 49 91 97 124 67 100 51 137 230 353 464 578 635 770
101 106 102 73 51 85 73 92 171 138 64 66 111 118 81 50 2 72 112 128 106 91 46 35 71 95 72 54 68 64 54 96 105 104 99 117 104 109 144 223 298 428 555 650 607
113 123 109 93 108 120 52 91 160 138 13 50 120 143 51 43 63 109 120 107 173 180 127 100 73 87 116 107 127 103 93 78 94 117 107 107 107 85 138 327 379 375 454 520 477
140 132 119 120 159 100 40 60 164 179 34 85 64 57 83 95 126 93 123 111 145 117 118 119 65 62 38 90 146 137 183 152 201 180 140 180 137 26 122 407 465 446 455 406 364
156 134 135 118 121 98 77 57 160 158 141 118 100 51 16 60 32 38 82 73 40 71 95 100 101 67 145 117 160 158 147 105 69 92 138 199 143 89 274 451 443 510 401 341 292
180 150 163 130 111 87 87 86 84 152 60 110 140 81 52 53 -37 -10 18 40 -13 -28 12 55 105 99 96 98 83 100 98 57 64 167 120 59 21 119 291 445 466 417 317 295 340
160 133 92 98 91 102 120 119 118 95 90 95 145 138 48 74 82 26 120 90 100 57 43 128 221 239 216 229 171 118 89 38 59 86 129 119 119 122 172 313 306 317 311 287 256
158 162 153 99 101 101 126 128 110 75 44 90 68 104 94 104 154 152 102 113 48 84 37 39 83 104 124 150 151 172 177 126 121 113 83 60 76 25 174 270 258 264 285 268 267
204 204 138 107 111 153 128 141 172 82 118 92 36 63 45 42 53 51 52 45 62 79 94 62 48 58 65 51 70 124 50 35 43 66 23 22 48 61 157 207 190 184 203 251 263
Wind_Speed
53 53 53 54 54 54 54 53 53 54 55 56 56 55 55 56 57 44 53 48 41 43 42 43 38 36 39 46 39 33 45 58 56 30 45 19 18 27 32 27 33 31 26 25 30
54 55 56 56 56 57 57 56 55 55 55 56 57 56 56 56 50 54 55 49 48 42 43 44 45 43 45 44 35 31 47 56 43 17 24 18 16 19 29 30 38 37 33 29 29
53 55 57 58 59 59 59 59 57 56 56 56 57 57 56 51 44 41 40 56 49 44 45 43 42 44 48 45 39 39 59 48 30 19 16 17 18 23 20 25 21 21 22 24 22
52 54 56 59 60 61 61 61 60 58 56 56 56 57 56 39 37 32 30 38 41 43 44 44 41 46 48 51 46 47 41 22 17 17 19 16 16 22 18 25 18 15 19 19 17
52 54 55 57 61 62 63 63 62 61 58 56 56 55 45 38 46 41 41 41 40 41 43 43 46 47 51 51 55 40 26 20 11 14 19 18 24 21 18 28 20 17 15 14 14
52 53 54 55 57 62 64 65 65 64 61 57 55 53 42 50 43 41 35 48 52 44 47 44 46 52 56 58 37 33 27 24 25 26 19 24 30 24 30 19 17 14 11 11 11
52 54 54 53 55 58 64 66 67 66 64 60 55 46 47 65 43 52 58 55 53 50 48 41 40 47 41 47 33 31 39 42 29 22 31 22 31 29 14 12 13 13 10 8 10
53 54 54 54 53 55 59 65 69 68 65 59 46 41 50 51 60 62 56 54 48 52 49 44 43 45 41 38 42 39 43 48 43 27 30 23 46 32 6 7 14 12 8 5 9
54 55 56 56 55 54 58 61 65 66 58 42 37 34 45 51 55 58 50 50 48 53 44 41 43 45 43 47 52 50 58 54 50 39 37 29 46 30 10 13 17 10 6 5 9
55 55 56 57 57 55 57 60 51 43 27 25 36 39 39 36 41 48 54 51 48 48 41 42 45 51 47 48 61 60 57 55 55 49 32 35 36 42 17 17 17 16 8 7 1
55 55 55 56 56 54 54 38 38 33 35 33 32 39 38 39 40 38 42 46 40 36 43 43 47 54 53 50 55 56 57 62 67 50 31 28 34 37 20 22 24 19 17 10 3
55 55 55 55 55 52 38 35 35 37 51 54 72 72 71 56 46 50 30 32 36 45 40 49 57 59 53 55 57 61 70 77 61 48 31 41 35 30 21 23 23 23 20 10 4
54 54 53 53 53 35 36 38 44 45 40 54 16 48 44 31 42 60 31 38 40 44 50 53 60 49 55 63 61 59 56 50 48 43 39 43 49 43 36 37 35 26 18 12 12
53 52 50 52 35 38 29 46 45 39 40 40 11 30 31 33 49 49 31 31 36 39 46 53 60 60 64 65 50 50 47 47 46 42 55 42 73 59 55 41 29 26 21 16 12
52 50 47 40 40 31 43 49 45 32 37 31 20 19 11 14 32 31 25 23 37 35 33 42 47 54 54 47 41 50 42 47 48 52 58 52 65 71 69 66 37 24 18 13 12
51 48 45 31 32 36 47 44 30 31 35 26 23 16 15 2 32 33 28 24 30 39 43 54 48 46 40 37 40 38 47 51 52 54 68 64 59 67 63 64 59 26 14 6 8
50 47 43 41 34 41 44 30 29 33 36 29 28 21 14 14 26 33 37 23 28 37 48 49 50 44 38 41 39 41 49 62 63 60 67 53 55 56 58 61 42 24 11 5 7
47 46 44 44 42 41 31 27 33 34 34 30 29 28 25 12 17 26 31 34 38 37 39 43 45 42 39 27 32 36 35 42 59 62 73 54 55 53 47 49 37 26 18 14 9
42 40 42 40 39 30 26 33 31 33 33 34 32 32 29 15 9 16 28 37 32 35 32 34 36 33 35 26 23 33 38 36 52 55 65 53 45 43 39 42 32 24 19 15 12
36 37 39 33 25 27 29 37 34 29 30 31 28 35 33 27 8 8 24 36 37 36 35 32 33 37 34 28 29 34 36 50 49 61 67 58 64 60 37 33 28 23 19 18 15
34 35 33 29 27 30 36 37 36 33 28 26 28 29 29 23 18 14 27 29 36 38 31 35 33 36 33 33 43 46 47 41 39 40 62 74 62 53 40 24 22 20 18 16 15
34 39 31 30 35 36 37 34 36 34 28 27 25 25 28 25 23 15 20 27 37 38 35 41 34 36 35 39 31 34 44 44 47 53 51 54 57 65 35 18 19 21 19 18 16
33 36 32 34 44 42 39 42 34 35 32 30 27 21 25 24 21 18 21 32 34 34 37 43 40 44 40 32 40 39 55 49 38 41 50 61 61 56 33 25 21 17 17 17 17
34 38 38 40 43 41 39 43 40 33 28 29 31 23 22 24 22 18 21 33 37 38 41 39 39 40 43 41 44 53 53 48 41 48 49 51 52 45 35 26 20 19 19 19 21
37 42 38 45 54 43 37 37 37 39 31 29 29 25 28 25 26 21 36 36 40 43 41 36 36 38 38 42 40 38 44 47 49 49 49 49 48 40 29 22 20 21 21 21 20
39 40 40 42 42 39 41 38 34 31 30 33 28 27 24 28 28 24 21 28 31 33 32 37 35 39 35 40 37 39 46 46 45 48 43 43 51 36 27 24 22 20 19 19 20
44 45 41 42 39 41 43 36 30 28 33 32 21 26 18 19 23 23 24 24 28 32 34 33 36 39 36 40 40 42 49 45 46 50 45 50 42 34 32 29 22 19 19 20 21
Wind_Direction
292 294 295 294 295 297 293 291 290 291 293 295 293 293 291 289 281 274 248 243 248 247 257 263 273 274 267 259 279 301 289 286 291 304 313 24 4 351 4 30 6 13 31 43 99
289 287 290 291 292 294 294 291 289 287 290 292 292 292 289 291 279 256 243 241 242 254 260 262 259 267 260 270 290 298 289 293 301 340 354 2 350 9 1 5 352 2 22 77 94
288 284 281 288 288 291 292 289 289 285 285 289 291 291 286 287 280 260 254 235 245 256 264 268 270 270 262 272 288 300 287 300 306 352 34 26 3 356 14 2 4 24 56 81 84
291 288 282 281 285 285 287 287 287 285 282 287 290 289 284 294 265 268 262 248 251 260 265 264 269 265 267 268 291 297 307 307 335 353 348 350 8 353 1 360 20 58 82 82 81
299 291 284 280 280 281 282 283 284 284 281 282 287 288 292 287 257 256 259 258 262 262 262 264 262 268 262 273 289 305 317 328 10 354 345 355 338 346 348 355 28 51 64 65 72
299 292 287 279 275 280 279 279 281 282 280 279 283 285 293 267 261 266 275 263 256 260 265 268 264 275 264 272 294 305 314 328 326 329 340 329 330 342 343 18 37 52 47 54 77
296 293 285 279 277 277 280 278 276 277 276 276 278 294 285 232 259 260 261 259 258 261 265 279 283 279 285 280 300 303 301 302 315 326 326 334 324 322 356 33 31 24 33 63 39
293 295 289 283 276 277 277 276 274 269 270 279 295 301 282 270 256 247 253 258 265 264 272 278 285 284 287 294 293 297 299 298 302 310 320 319 315 320 333 352 344 4 30 45 36
291 292 292 288 283 278 281 274 266 266 280 295 303 306 292 269 253 246 258 264 269 271 276 284 285 278 281 280 283 289 290 295 301 301 308 308 314 317 290 310 323 337 345 22 30
291 290 292 290 289 285 285 279 276 297 322 313 293 295 291 290 274 262 259 262 272 275 275 283 276 272 275 276 276 284 291 295 298 309 296 300 303 315 299 299 307 312 302 319 58
290 290 290 291 291 291 302 327 316 316 305 287 291 276 285 285 284 282 267 265 275 281 271 278 271 267 272 278 282 285 290 293 298 308 303 288 299 308 304 306 308 298 287 289 218
286 287 287 289 290 289 329 330 337 331 291 279 243 246 237 266 276 260 283 275 274 268 278 274 270 269 277 279 282 286 288 288 301 310 306 308 302 307 294 283 279 280 277 265 259
283 283 285 286 286 312 320 322 307 326 312 277 296 268 268 291 283 248 285 278 274 273 271 272 269 281 279 279 286 289 298 302 306 315 311 319 309 312 307 297 297 279 266 251 220
281 281 285 285 298 303 322 301 306 343 309 302 358 288 274 280 281 270 280 283 280 276 276 278 273 278 278 281 290 291 304 308 314 314 308 315 307 314 319 313 294 281 267 264 217
277 278 281 288 286 301 297 292 306 342 305 330 1 38 331 260 300 296 275 289 282 281 287 285 286 284 289 288 297 298 310 309 311 310 311 312 311 314 321 321 316 283 265 259 205
274 275 279 286 290 296 295 301 331 316 306 329 355 45 1 217 276 293 293 286 295 288 286 283 287 293 301 307 306 310 307 309 310 311 303 313 315 316 325 328 330 333 310 259 191
273 273 272 273 278 293 298 308 302 299 304 317 322 359 348 315 281 283 283 285 288 291 284 288 287 296 300 299 308 314 310 303 303 305 305 324 321 320 330 334 340 352 11 73 129
275 273 268 264 270 287 298 287 286 296 306 331 331 346 339 327 295 285 285 287 289 286 296 294 291 306 312 297 307 320 321 311 305 308 307 324 320 328 344 352 4 17 32 44 63
279 275 268 267 265 287 280 267 284 298 309 312 320 333 331 348 331 288 285 292 300 299 292 307 309 333 339 330 324 320 318 328 315 317 312 323 332 337 346 350 5 19 30 34 27
277 272 266 268 272 277 267 263 282 306 319 324 315 325 325 333 30 308 285 292 291 300 298 309 306 319 324 340 342 330 334 318 323 314 312 320 322 328 343 348 358 5 13 19 41
271 267 265 268 267 265 257 260 282 300 318 321 327 326 357 14 19 342 300 300 299 296 318 310 312 315 329 331 323 322 326 332 332 331 318 316 325 338 331 340 357 15 28 38 42
266 260 263 262 255 259 256 259 289 293 309 308 331 341 1 19 14 354 306 303 301 303 308 313 319 313 321 330 351 355 343 343 329 326 329 329 329 342 357 9 19 15 27 37 45
259 262 266 259 251 252 260 258 279 289 293 298 304 329 354 11 48 6 320 298 322 327 323 320 318 309 317 328 332 332 329 334 339 339 333 329 330 347 10 15 16 32 34 33 38
258 255 259 256 256 253 255 257 262 285 296 298 297 306 318 341 41 55 334 314 318 325 326 325 321 318 311 319 324 322 331 339 342 332 334 337 340 348 357 5 17 24 30 32 24
255 258 257 252 246 249 253 262 256 267 282 296 294 299 297 307 323 345 294 300 310 305 318 325 323 324 326 326 337 342 339 345 344 343 339 343 346 351 357 11 26 28 30 26 24
251 256 255 258 247 242 249 258 254 268 279 273 283 299 309 299 305 326 348 316 318 312 350 337 338 336 339 340 352 349 347 353 352 352 356 356 352 7 25 32 27 23 21 17 15
252 256 256 254 249 237 244 252 261 263 277 281 276 284 313 321 314 325 330 341 334 328 330 344 347 343 345 344 340 340 349 359 2 359 359 352 1 16 14 12 18 19 11 2 2